Flag Weather past 2 weeks in Larnaca, Cyprus

Now
63 °F

Scattered clouds.


Feels Like: 63 °F
Forecast: 46 / 63 °F
Wind: 7 mph from Northwest

Location: Larnaca Airport

Current Time: Nov 26, 2014 at 4:15:16 PM

Latest Report: Nov 26, 2014 at 3:30 PM


Visibility: N/A

Pressure: 29.80 "Hg

Humidity: 49%

Dew point: 43 °F

Location of LarnacaLocation

Historic Weather in Larnaca — Graph

°F

Larnaca temperature yesterday

Maximum temperature yesterday: 63 °F (at 10:30 AM)
Minimum temperature yesterday: 48 °F (at 5:30 AM)
Average temperature yesterday: 55 °F

Past Weeks' High & Low Weather Summary

 TemperatureHumidityPressure
High79 °F (Nov 11, 3:00 PM)94% (Nov 16, 3:30 AM)30.21 "Hg (Nov 16, 3:30 AM)
Low48 °F (Nov 25, 5:30 AM)30% (Nov 13, 12:30 PM)29.71 "Hg (Nov 25, 9:00 PM)
Average63 °F64%29.96 "Hg
* Reported Nov 11 3:00 PM — Nov 26 3:00 PM, Larnaca, Weather by CustomWeather, © 2014

Note: Actual official high and low records may vary slightly from our data, if they occured in-between our weather recording intervals... More about our weather records

Advertising

Larnaca weather history for previous 24 hours

 ConditionsComfort  
Time TempWeatherWind HumidityBarometerVisibility
3:00 PM
Nov 26
63 °FScattered clouds.8 mph49%29.80 "HgN/A
2:30 PM63 °FScattered clouds.8 mph45%29.80 "HgN/A
2:00 PM64 °FScattered clouds.6 mph43%29.80 "HgN/A
1:30 PM66 °FScattered clouds.7 mph43%29.77 "HgN/A
1:00 PM64 °FScattered clouds.10 mph43%29.77 "HgN/A
12:30 PM63 °FPassing clouds.10 mph45%29.77 "HgN/A
12:00 PM61 °FPassing clouds.10 mph48%29.77 "HgN/A
11:30 AM61 °FPassing clouds.8 mph52%29.80 "HgN/A
11:00 AM61 °FPassing clouds.5 mph52%29.80 "HgN/A
10:30 AM61 °FPassing clouds.10 mph52%29.80 "HgN/A
10:00 AM59 °FPassing clouds.8 mph51%29.80 "HgN/A
9:30 AM57 °FPassing clouds.6 mph63%29.80 "HgN/A
9:00 AM57 °FPassing clouds.8 mph59%29.77 "HgN/A
8:30 AM57 °FScattered clouds.7 mph63%29.77 "HgN/A
8:00 AM54 °FScattered clouds.6 mph67%29.77 "HgN/A
7:30 AM52 °FScattered clouds.8 mph72%29.74 "HgN/A
7:00 AM52 °FPassing clouds.7 mph72%29.74 "HgN/A
6:30 AM48 °FPassing clouds.6 mph76%29.74 "HgN/A
6:00 AM48 °FPassing clouds.7 mph76%29.71 "HgN/A
5:30 AM50 °FPassing clouds.6 mph71%29.71 "HgN/A
5:00 AM50 °FPassing clouds.5 mph71%29.71 "HgN/A
4:30 AM52 °FPassing clouds.9 mph62%29.71 "HgN/A
4:00 AM52 °FPassing clouds.12 mph67%29.71 "HgN/A
3:30 AM52 °FPassing clouds.7 mph62%29.71 "HgN/A
3:00 AM50 °FPassing clouds.9 mph67%29.71 "HgN/A
2:30 AM52 °FPassing clouds.8 mph62%29.71 "HgN/A
2:00 AM52 °FPassing clouds.7 mph62%29.71 "HgN/A
1:00 AM50 °FPassing clouds.7 mph76%29.71 "HgN/A
12:30 AM52 °FPassing clouds.5 mph72%29.74 "HgN/A
12:00 AM52 °FPassing clouds.9 mph77%29.74 "HgN/A
11:30 PM
Nov 25
48 °FPassing clouds.9 mph87%29.71 "HgN/A
11:00 PM50 °FPassing clouds.8 mph82%29.71 "HgN/A
10:30 PM52 °FSprinkles. Passing clouds.25 mph77%29.77 "HgN/A
10:00 PM52 °FPassing clouds.5 mph72%29.71 "HgN/A
9:30 PM54 °FThunderstorms. Passing clouds.6 mph67%29.71 "HgN/A
9:00 PM52 °FThunderstorms. Passing clouds.6 mph82%29.71 "HgN/A
8:30 PM54 °FPassing clouds.9 mph77%29.74 "HgN/A
8:00 PM57 °FPassing clouds.12 mph67%29.74 "HgN/A
7:30 PM57 °FSprinkles. Passing clouds.13 mph72%29.74 "HgN/A
7:00 PM57 °FPassing clouds.9 mph82%29.74 "HgN/A
6:30 PM57 °FLight rain. Passing clouds.7 mph82%29.74 "HgN/A
6:00 PM57 °FPassing clouds.9 mph88%29.74 "HgN/A
5:30 PM57 °FPassing clouds.9 mph88%29.74 "HgN/A
5:00 PM59 °FPassing clouds.8 mph88%29.74 "HgN/A
4:30 PM57 °FThunderstorms. Scattered clouds.8 mph94%29.74 "HgN/A
4:00 PM57 °FSprinkles. Scattered clouds.6 mph88%29.77 "HgN/A
Weather by CustomWeather, © 2014

See weather overviewHow to use our weather pages